Location: *
(32.8667°N, 13.1833°E)
Time: 02:32:42
(UTC+00:00)

DMSP B5D2-2 - Pass Details

Date: 18 July 2019
Orbit: 789 x 807 km, 98.4° (Epoch: 19 August)

Event Time Altitude Azimuth Distance (km) Brightness Sun altitude
Rises 19:50:43 0° 10° (N) 3,290 7.7 -17.6°
Reaches altitude 10° 19:53:03 10° 9° (N) 2,357 6.9 -18.0°
Maximum altitude 19:58:14 75° 284° (WNW) 818 4.2 -18.8°
Drops below altitude 10° 20:03:24 10° 200° (SSW) 2,346 6.3 -19.6°
Enters shadow 20:04:14 - 199° (SSW) 2,680 6.6 -19.7°
